Погода в Медном

Россия / Тамбовская область     52°19′59″N   41°51′48″E
темп.,
°C
ветер,
м/с
пор.,
м/с
влажн.,
%
обл.,
%
осадки,
мм/ч
давл.,
гПа
погр.,
м
14 августа, вс
вс1400:00+21зсз3484100 1.8 1020108
03:00+20ссз2382100 2.4 101946
06:00+19всв3666100 0.1 1019109
09:00+20всв3864100 0.1 1019223
12:00+27св463441 0.0 1018981
15:00+29ссв453144 0.0 10171435
18:00+28всв473796 0.0 1016384
21:00+22всв4115098 0.0 1017229
15 августа, пн
пн1500:00+20всв485715 0.0 1017141
03:00+19в4116152 0.0 1017207
06:00+19в4106411 0.0 1018217
09:00+25в68485 0.0 1018543
12:00+30в67355 0.0 10171734
15:00+31в662995 0.0 10172289
18:00+29в693582 0.0 1017675
21:00+24в6144389 0.0 1018418
16 августа, вт
вт1600:00+21в615406 0.0 1019402
03:00+19в5134225 0.0 1019309
06:00+18в5135252 0.0 1020327
09:00+24в6104053 0.0 1019664
12:00+29в783073 0.0 10181495
15:00+31вюв672630 0.0 10171932
18:00+30в4728100 0.0 1016236
21:00+26в61335100 0.0 1017345
17 августа, ср
ср1700:00+24вюв4835100 0.0 1017185
03:00+22в4945100 0.1 1018219
06:00+23в51237100 0.0 1017367
09:00+23в61137100 0.0 1016368
12:00+30в8924100 0.0 10151404
15:00+32в7821100 0.0 10141655
18:00+30в6102570 0.0 1014570
21:00+24всв6133771 0.0 1014295
18 августа, чт
чт1800:00+24в71537100 0.0 1014432
03:00+21всв6134273 0.0 1013318
06:00+21всв61443100 0.0 1013351
09:00+25всв7936100 0.0 1012421
12:00+30в6828100 0.0 10111040
15:00+31юв8926100 0.0 10101826
18:00+26св71236100 0.0 1010359
21:00+26всв91738100 0.0 1010714